GW4410 Weather Reports


Display with metric or nautical units.
time (UTC)temp
F
wind
direction
speed
MPH
gust
MPH
rain 1hr
in
rain 24hr
in
rain mn
in
humidity
%
barometer
mb
20260504160442 67 253 2.0 4.0 0.00 0.00 0.00 40 1037.7
20260504150906 63 258 5.0 8.0 0.00 0.00 0.00 36 1038.6
20260504150402 62 345 5.0 11.0 0.00 0.00 0.00 37 1038.3
20260504141332 62 103 3.0 8.0 0.00 0.00 0.00 41 1038.7
20260504140829 62 193 3.0 9.0 0.00 0.00 0.00 38 1038.6
20260504140324 62 317 2.0 5.0 0.00 0.00 0.00 39 1038.8
20260504130753 57 308 2.0 6.0 0.00 0.00 0.00 50 1039.1
20260504130249 56 322 2.0 5.0 0.00 0.00 0.00 46 1039.4
20260504120213 52 301 2.0 4.0 0.00 0.00 0.00 55 1039.5
20260504110640 47 275 4.0 4.0 0.00 0.00 0.00 61 1039.3
20260504110137 47 289 4.0 5.0 0.00 0.00 0.00 59 1039.5
20260504100557 45 303 4.0 4.0 0.00 0.00 0.00 61 1039.3
20260504081951 46 285 3.0 6.0 0.00 0.00 0.00 59 1038.7
20260504081448 46 298 4.0 6.0 0.00 0.00 0.00 58 1038.5
20260504080943 45 303 4.0 4.0 0.00 0.00 0.00 59 1038.6
20260504080440 45 278 3.0 4.0 0.00 0.00 0.00 58 1038.7
20260504070403 44 286 2.0 3.0 0.00 0.00 0.00 58 1038.5
20260504050738 42 336 2.0 2.0 0.00 0.00 0.00 66 1038.4
20260504050235 42 297 2.0 3.0 0.00 0.00 0.00 64 1038.5
20260504045732 42 317 2.0 3.0 0.00 0.00 0.00 65 1038.4
20260504045227 42 286 3.0 4.0 0.00 0.00 0.00 66 1038.5
20260504044725 42 288 4.0 4.0 0.00 0.00 0.00 63 1038.6
20260504044222 42 307 2.0 3.0 0.00 0.00 0.00 63 1038.3
20260504043719 42 345 2.0 2.0 0.00 0.00 0.00 62 1038.5
20260504043215 43 340 2.0 4.0 0.00 0.00 0.00 63 1038.6
20260504042713 42 295 2.0 3.0 0.00 0.00 0.00 62 1038.2
20260504042209 42 290 3.0 4.0 0.00 0.00 0.00 63 1038.5
20260504041706 42 306 2.0 2.0 0.00 0.00 0.00 62 1038.5
20260504041201 43 331 2.0 3.0 0.00 0.00 0.00 64 1038.5
20260504040658 43 297 1.0 3.0 0.00 0.00 0.00 62 1038.4
20260504040155 43 285 3.0 4.0 0.00 0.00 0.00 63 1038.5
20260504035652 43 283 4.0 4.0 0.00 0.00 0.00 63 1038.4
20260504035149 43 315 3.0 3.0 0.00 0.00 0.00 62 1038.4
20260504034647 43 315 1.0 3.0 0.00 0.00 0.00 64 1038.4
20260504034143 43 344 1.0 2.0 0.00 0.00 0.00 62 1038.3
20260504033641 43 328 1.0 4.0 0.00 0.00 0.00 64 1038.3
20260504033138 42 289 4.0 4.0 0.00 0.00 0.00 60 1038.1
20260504032635 42 325 2.0 2.0 0.00 0.00 0.00 63 1038.3
20260504032132 42 311 2.0 3.0 0.00 0.00 0.00 63 1038.3
20260504031629 43 329 2.0 3.0 0.00 0.00 0.00 61 1038.3
20260504031125 43 295 2.0 4.0 0.00 0.00 0.00 61 1038.3
20260504030622 43 275 2.0 4.0 0.00 0.00 0.00 59 1038.2
20260504030119 43 312 2.0 3.0 0.00 0.00 0.00 57 1038.2
20260504025616 43 307 1.0 3.0 0.00 0.00 0.00 55 1038.1
20260504025113 43 318 1.0 3.0 0.00 0.00 0.00 59 1038.3
20260504024610 43 302 2.0 3.0 0.00 0.00 0.00 61 1038.2
20260504024107 43 282 3.0 4.0 0.00 0.00 0.00 61 1038.3
20260504023603 44 300 3.0 4.0 0.00 0.00 0.00 62 1038.2
20260504023059 43 296 2.0 4.0 0.00 0.00 0.00 58 1038.2
20260504022555 43 326 2.0 3.0 0.00 0.00 0.00 61 1038.1
20260504022051 43 289 2.0 2.0 0.00 0.00 0.00 61 1038.1
20260504021549 43 310 2.0 4.0 0.00 0.00 0.00 60 1038.2
20260504021046 43 275 4.0 5.0 0.00 0.00 0.00 55 1038.3
20260504020543 44 340 1.0 3.0 0.00 0.00 0.00 57 1038.2
20260504020039 44 325 2.0 3.0 0.00 0.00 0.00 56 1038.2
20260504015536 44 319 2.0 3.0 0.00 0.00 0.00 58 1038.2
20260504015032 44 295 3.0 3.0 0.00 0.00 0.00 53 1038.2
20260504014528 44 300 3.0 4.0 0.00 0.00 0.00 53 1038.2
20260504014025 44 276 3.0 4.0 0.00 0.00 0.00 53 1038.0
20260504013523 44 318 1.0 2.0 0.00 0.00 0.00 56 1037.8
20260504013020 44 328 2.0 2.0 0.00 0.00 0.00 56 1038.0
20260504012517 44 324 2.0 3.0 0.00 0.00 0.00 58 1037.9
20260504012015 45 312 2.0 2.0 0.00 0.00 0.00 54 1037.8
20260504011511 45 315 2.0 4.0 0.00 0.00 0.00 54 1037.8
20260504011008 45 303 2.0 3.0 0.00 0.00 0.00 55 1037.7
20260504010503 45 333 2.0 2.0 0.00 0.00 0.00 56 1037.7
20260504005959 46 321 2.0 3.0 0.00 0.00 0.00 58 1037.5
20260504005456 46 304 2.0 3.0 0.00 0.00 0.00 55 1037.3
20260504004954 46 302 2.0 3.0 0.00 0.00 0.00 55 1037.4
20260504004451 46 310 2.0 3.0 0.00 0.00 0.00 52 1037.3
20260504003948 46 305 2.0 3.0 0.00 0.00 0.00 50 1037.4
20260504003444 46 330 1.0 3.0 0.00 0.00 0.00 53 1037.2
20260504002941 46 288 4.0 4.0 0.00 0.00 0.00 50 1037.0
20260504002438 46 322 2.0 2.0 0.00 0.00 0.00 54 1036.9
20260504001936 46 298 2.0 2.0 0.00 0.00 0.00 50 1037.0
20260504001433 46 289 2.0 2.0 0.00 0.00 0.00 50 1037.0
20260504000929 46 293 2.0 3.0 0.00 0.00 0.00 49 1036.9
20260504000426 47 309 2.0 2.0 0.00 0.00 0.00 49 1036.8
20260503235924 47 336 2.0 2.0 0.00 0.00 0.00 48 1036.8
20260503235422 48 304 2.0 3.0 0.00 0.00 0.00 44 1036.6
20260503234919 49 258 0.0 2.0 0.00 0.00 0.00 41 1036.6
20260503234416 49 261 2.0 3.0 0.00 0.00 0.00 43 1036.5
20260503233914 49 316 2.0 2.0 0.00 0.00 0.00 43 1036.6
20260503233410 50 267 1.0 2.0 0.00 0.00 0.00 41 1036.4
20260503232907 51 276 1.0 3.0 0.00 0.00 0.00 39 1036.2
20260503232404 51 262 1.0 2.0 0.00 0.00 0.00 41 1036.4
20260503231902 51 275 0.0 2.0 0.00 0.00 0.00 39 1036.5
20260503231359 51 17 0.0 2.0 0.00 0.00 0.00 39 1036.6
20260503230855 52 2 4.0 7.0 0.00 0.00 0.00 37 1036.3
20260503230352 52 29 4.0 5.0 0.00 0.00 0.00 37 1036.5
20260503225850 52 8 3.0 4.0 0.00 0.00 0.00 38 1036.3
20260503225345 52 314 2.0 6.0 0.00 0.00 0.00 38 1036.3
20260503224842 52 18 2.0 11.0 0.00 0.00 0.00 36 1036.2
20260503224339 52 297 5.0 5.0 0.00 0.00 0.00 39 1036.4
20260503223837 52 8 5.0 6.0 0.00 0.00 0.00 38 1036.3
20260503223334 52 75 3.0 8.0 0.00 0.00 0.00 36 1036.1
20260503222830 52 334 2.0 9.0 0.00 0.00 0.00 37 1036.2
20260503222328 52 337 2.0 8.0 0.00 0.00 0.00 42 1036.1
20260503221826 52 298 2.0 9.0 0.00 0.00 0.00 37 1036.1
20260503221325 53 294 3.0 15.0 0.00 0.00 0.00 37 1036.2
20260503220820 53 299 5.0 5.0 0.00 0.00 0.00 36 1036.0
20260503220317 53 88 5.0 5.0 0.00 0.00 0.00 37 1036.0
20260503215814 52 310 6.0 17.0 0.00 0.00 0.00 37 1036.0
20260503215311 52 57 6.0 6.0 0.00 0.00 0.00 38 1036.1
20260503214809 52 125 4.0 7.0 0.00 0.00 0.00 38 1036.0
20260503214306 51 340 3.0 10.0 0.00 0.00 0.00 38 1036.2
20260503213804 52 36 3.0 14.0 0.00 0.00 0.00 37 1036.1
20260503213301 52 349 7.0 13.0 0.00 0.00 0.00 37 1036.0
20260503212757 52 32 5.0 15.0 0.00 0.00 0.00 37 1036.3
20260503212255 52 29 8.0 12.0 0.00 0.00 0.00 38 1035.9
20260503211752 52 297 4.0 6.0 0.00 0.00 0.00 40 1036.0
20260503211248 52 353 4.0 13.0 0.00 0.00 0.00 38 1036.1
20260503210744 52 4 6.0 14.0 0.00 0.00 0.00 39 1036.0
20260503210242 51 321 4.0 7.0 0.00 0.00 0.00 39 1036.0
20260503205742 51 341 6.0 17.0 0.00 0.00 0.00 39 1036.3
20260503205239 51 29 4.0 10.0 0.00 0.00 0.00 39 1035.9
20260503204735 51 324 6.0 11.0 0.00 0.00 0.00 39 1035.9
20260503204233 51 21 11.0 24.0 0.00 0.00 0.00 37 1035.9
20260503203730 51 19 5.0 18.0 0.00 0.00 0.00 38 1036.0
20260503203228 52 262 5.0 13.0 0.00 0.00 0.00 39 1035.8
20260503202725 54 7 4.0 7.0 0.00 0.00 0.00 38 1036.0
20260503202223 54 280 2.0 6.0 0.00 0.00 0.00 39 1035.9
20260503201720 52 319 2.0 8.0 0.00 0.00 0.00 37 1036.0
20260503201217 52 286 4.0 9.0 0.00 0.00 0.00 39 1036.1
20260503200713 51 359 3.0 19.0 0.00 0.00 0.00 41 1036.0
20260503200210 51 338 2.0 13.0 0.00 0.00 0.00 40 1036.0
20260503195707 52 278 5.0 13.0 0.00 0.00 0.00 40 1035.8
20260503195204 52 60 4.0 17.0 0.00 0.00 0.00 40 1035.7
20260503194701 51 357 5.0 17.0 0.00 0.00 0.00 39 1035.9
20260503194156 51 7 4.0 15.0 0.00 0.00 0.00 40 1035.8
20260503193653 52 17 14.0 18.0 0.00 0.00 0.00 38 1035.9
20260503193149 52 295 9.0 20.0 0.00 0.00 0.00 40 1036.0
20260503192645 51 8 8.0 23.0 0.00 0.00 0.00 41 1035.8
20260503192140 50 48 3.0 17.0 0.00 0.00 0.00 41 1035.8
20260503191637 51 13 4.0 16.0 0.00 0.00 0.00 41 1036.0
20260503191135 53 349 9.0 10.0 0.00 0.00 0.00 37 1035.8
20260503190631 54 0 4.0 6.0 0.00 0.00 0.00 38 1035.8
20260503190128 53 309 5.0 9.0 0.00 0.00 0.00 39 1035.9
20260503185625 54 43 12.0 13.0 0.00 0.00 0.00 37 1035.7
20260503185120 54 322 4.0 7.0 0.00 0.00 0.00 38 1035.7
20260503184615 53 24 4.0 17.0 0.00 0.00 0.00 38 1035.9
20260503184112 52 12 5.0 16.0 0.00 0.00 0.00 39 1035.6
20260503183609 51 1 10.0 13.0 0.00 0.00 0.00 39 1035.7
20260503183106 52 8 8.0 20.0 0.00 0.00 0.00 39 1035.9
20260503182605 52 324 8.0 13.0 0.00 0.00 0.00 37 1035.8
20260503182102 50 20 5.0 29.0 0.00 0.00 0.00 39 1035.9
20260503181559 52 20 8.0 15.0 0.00 0.00 0.00 39 1035.8
20260503181055 51 345 4.0 13.0 0.00 0.00 0.00 39 1035.7
20260503180553 52 20 9.0 17.0 0.00 0.00 0.00 37 1035.9
20260503180050 51 317 5.0 9.0 0.00 0.00 0.00 40 1035.8
20260503175547 51 29 2.0 8.0 0.00 0.00 0.00 44 1035.9
20260503175044 51 323 2.0 6.0 0.00 0.00 0.00 42 1035.9
20260503174541 53 319 6.0 9.0 0.00 0.00 0.00 42 1035.7
20260503174038 52 310 3.0 8.0 0.00 0.00 0.00 41 1035.8
20260503173533 50 28 9.0 18.0 0.00 0.00 0.00 43 1036.1
20260503173029 50 294 3.0 15.0 0.00 0.00 0.00 44 1036.1
20260503172521 52 138 6.0 11.0 0.00 0.00 0.00 44 1036.0
20260503172018 50 339 6.0 6.0 0.00 0.00 0.00 50 1036.2
20260503171514 51 10 4.0 9.0 0.00 0.00 0.00 50 1035.9
20260503171012 50 2 3.0 9.0 0.00 0.00 0.00 47 1036.1
20260503170508 49 326 4.0 13.0 0.00 0.00 0.00 48 1036.1